Weather History for Clemson, SC

Change the Weather History Date:

Friday, March 7, 2014

  Actual Average Record
Temperature  
Mean Temperature 48 °F -  
Max Temperature 57 °F 62 °F 79 °F (1974)
Min Temperature 39 °F 36 °F 19 °F (1954)
Degree Days  
Heating Degree Days 17    
Moisture  
Dew Point 38 °F    
Average Humidity 74    
Maximum Humidity 86    
Minimum Humidity 47    
Precipitation  
Precipitation 0.47 in - - ()
Sea Level Pressure  
Sea Level Pressure 29.97 in    
Wind  
Wind Speed 10 mph (NE)    
Max Wind Speed 16 mph    
Max Gust Speed 28 mph    
Visibility 9 miles    
Events Rain    
Averages and records for this station are not official NWS values.
T = Trace of Precipitation, MM = Missing Value Source: NWS Daily Summary

Daily Weather History Graph

Daily Weather History Graph

Search for Another Location

Airport:

Trip Planner

Search our weather history database for the weather conditions in past years. The results will help you decide how hot, cold, wet, or windy it might be!

Date:

Astronomy

Mar. 07, 2014 Rise Set
Actual Time 6:52 AM EST 6:32 PM EST
Civil Twilight 6:27 AM EST 6:57 PM EST
Nautical Twilight 5:58 AM EST 7:27 PM EST
Astronomical Twilight 5:29 AM EST 7:56 PM EST
Moon 10:59 AM EST (3/7) 12:22 AM EST (3/7)
Length of Visible Light 12h 30m
Length of Day
11h 39m
Waxing Crescent, 42% of the Moon is Illuminated
Mar 7
Waxing Crescent
Mar 8
First Quarter
Mar 16
Full
Mar 23
Last Quarter
Mar 30
New

Hourly Weather History & Observations

Time (EST) Temp. Windchill Dew Point Humidity Pressure Visibility Wind Dir Wind Speed Gust Speed Precip Events Conditions
12:43 AM 39.9 °F 32.9 °F 36.0 °F 86% 29.97 in 6.0 mi NE 11.5 mph - 0.04 in Rain Light Rain
12:54 AM 39.9 °F 31.8 °F 36.0 °F 86% 29.97 in 8.0 mi NE 15.0 mph 21.9 mph 0.05 in Rain Light Rain
1:20 AM 41.0 °F 35.2 °F 37.0 °F 86% 29.96 in 8.0 mi NE 9.2 mph 17.3 mph 0.01 in Rain Light Rain
1:28 AM 41.0 °F 34.3 °F 37.0 °F 86% 29.96 in 7.0 mi NE 11.5 mph - 0.02 in Rain Light Rain
1:54 AM 41.0 °F 34.7 °F 37.0 °F 86% 29.95 in 9.0 mi NE 10.4 mph 21.9 mph 0.04 in Rain Light Rain
2:34 AM 42.1 °F 36.1 °F 37.9 °F 85% 29.94 in 9.0 mi NE 10.4 mph - 0.03 in Rain Light Rain
2:54 AM 42.1 °F 36.1 °F 37.9 °F 85% 29.94 in 10.0 mi NNE 10.4 mph - 0.04 in Rain Light Rain
2:59 AM 42.1 °F 35.7 °F 37.9 °F 85% 29.94 in 9.0 mi NE 11.5 mph - 0.01 in Rain Light Rain
3:09 AM 42.1 °F 36.6 °F 37.9 °F 85% 29.93 in 8.0 mi NE 9.2 mph - 0.02 in Rain Rain
3:22 AM 42.1 °F 36.1 °F 37.9 °F 85% 29.93 in 7.0 mi NE 10.4 mph - 0.03 in Rain Rain
3:54 AM 42.1 °F 35.7 °F 37.9 °F 85% 29.93 in 7.0 mi NE 11.5 mph - 0.09 in Rain Rain
4:54 AM 43.0 °F 37.7 °F 37.9 °F 82% 29.94 in 10.0 mi NNE 9.2 mph - 0.03 in Rain Light Rain
5:54 AM 43.0 °F 35.4 °F 37.0 °F 80% 29.96 in 10.0 mi NE 16.1 mph 27.6 mph 0.04 in Rain Light Rain
6:54 AM 41.0 °F 34.7 °F 37.0 °F 86% 29.97 in 10.0 mi NNE 10.4 mph 23.0 mph 0.04 in Rain Light Rain
7:54 AM 42.1 °F 35.2 °F 37.0 °F 82% 29.99 in 9.0 mi North 12.7 mph - 0.04 in Rain Light Rain
8:54 AM 43.0 °F 38.2 °F 37.9 °F 82% 30.01 in 10.0 mi North 8.1 mph - 0.04 in Rain Light Rain
9:54 AM 45.0 °F 41.2 °F 39.9 °F 82% 30.03 in 10.0 mi North 6.9 mph - 0.04 in Rain Light Rain
10:54 AM 46.9 °F - 41.0 °F 80% 30.02 in 10.0 mi NNE 6.9 mph - 0.01 in Rain Light Rain
11:54 AM 50.0 °F - 41.0 °F 71% 30.01 in 10.0 mi NNE 10.4 mph - 0.01 in   Overcast
12:54 PM 53.1 °F - 41.0 °F 64% 29.98 in 10.0 mi ENE 13.8 mph 21.9 mph 0.00 in   Overcast
1:05 PM 53.1 °F - 39.9 °F 61% 29.98 in 10.0 mi ENE 12.7 mph - N/A   Overcast
1:33 PM 53.1 °F - 39.9 °F 61% 29.97 in 10.0 mi NE 10.4 mph 20.7 mph N/A   Overcast
1:54 PM 52.0 °F - 39.9 °F 63% 29.97 in 10.0 mi NE 10.4 mph - N/A   Overcast
2:54 PM 55.0 °F - 39.0 °F 55% 29.95 in 10.0 mi ENE 5.8 mph - N/A   Overcast
3:54 PM 57.0 °F - 39.0 °F 51% 29.94 in 10.0 mi ENE 10.4 mph 18.4 mph N/A   Clear
4:54 PM 57.0 °F - 37.0 °F 47% 29.94 in 10.0 mi ENE 8.1 mph - N/A   Clear
5:54 PM 55.0 °F - 37.9 °F 53% 29.96 in 10.0 mi ESE 4.6 mph - N/A   Clear
6:54 PM 51.1 °F - 39.0 °F 63% 29.99 in 10.0 mi SSE 3.5 mph - N/A   Clear
7:54 PM 50.0 °F - 39.0 °F 66% 30.00 in 10.0 mi Calm Calm - N/A   Clear
8:54 PM 50.0 °F - 39.0 °F 66% 30.01 in 10.0 mi SW 3.5 mph - N/A   Clear
9:54 PM 46.9 °F - 39.0 °F 74% 30.03 in 10.0 mi Calm Calm - N/A   Clear
10:54 PM 46.9 °F - 39.0 °F 74% 30.04 in 10.0 mi WSW 3.5 mph - N/A   Clear
11:54 PM 46.0 °F 43.1 °F 37.9 °F 73% 30.05 in 10.0 mi WSW 5.8 mph - N/A   Clear